Time,TemperatureF,DewpointF,PressureIn,WindDirection,WindDirectionDegrees,WindSpeedMPH,WindSpeedGustMPH,Humidity,HourlyPrecipIn,Conditions,Clouds,dailyrainin,SoftwareType,DateUTC
2013-07-12 00:00:00,60.4,27.8,29.77,South,180,5.3,5.3,29,0.00,,,0.00,WUHU216HW,2013-07-12 06:00:00,
2013-07-12 00:05:00,60.0,27.5,29.77,SSW,203,0.0,5.3,29,0.00,,,0.00,WUHU216HW,2013-07-12 06:05:00,
2013-07-12 00:10:00,59.7,28.2,29.77,SSW,203,0.0,5.8,30,0.00,,,0.00,WUHU216HW,2013-07-12 06:10:00,
2013-07-12 00:15:00,59.3,27.9,29.77,SSW,203,3.1,5.8,30,0.00,,,0.00,WUHU216HW,2013-07-12 06:15:00,
2013-07-12 00:20:00,59.1,27.8,29.77,SW,225,3.1,5.1,30,0.00,,,0.00,WUHU216HW,2013-07-12 06:20:00,
2013-07-12 00:25:00,59.1,27.8,29.77,SSW,203,0.8,6.2,30,0.00,,,0.00,WUHU216HW,2013-07-12 06:25:00,
2013-07-12 00:30:00,59.3,27.9,29.77,SSW,203,3.8,6.2,30,0.00,,,0.00,WUHU216HW,2013-07-12 06:30:00,
2013-07-12 00:35:00,59.3,27.9,29.77,SSW,203,6.2,6.2,30,0.00,,,0.00,WUHU216HW,2013-07-12 06:35:00,
2013-07-12 00:40:00,59.3,27.9,29.77,SSW,203,3.3,6.2,30,0.00,,,0.00,WUHU216HW,2013-07-12 06:40:00,
2013-07-12 00:45:00,59.5,28.1,29.77,SSW,203,3.8,6.2,30,0.00,,,0.00,WUHU216HW,2013-07-12 06:45:00,
2013-07-12 00:50:00,59.5,28.8,29.77,SSW,203,2.2,6.0,31,0.00,,,0.00,WUHU216HW,2013-07-12 06:50:00,
2013-07-12 00:55:00,59.5,28.8,29.77,SSW,203,4.9,7.3,31,0.00,,,0.00,WUHU216HW,2013-07-12 06:55:00,
2013-07-12 01:00:00,59.3,27.9,29.77,SW,225,5.8,8.7,30,0.00,,,0.00,WUHU216HW,2013-07-12 07:00:00,
2013-07-12 01:05:00,59.5,28.1,29.77,South,180,4.0,8.7,30,0.00,,,0.00,WUHU216HW,2013-07-12 07:05:00,
2013-07-12 01:10:00,59.5,28.1,29.77,SSW,203,6.2,6.2,30,0.00,,,0.00,WUHU216HW,2013-07-12 07:10:00,
2013-07-12 01:15:00,59.5,28.1,29.77,SW,225,4.0,6.9,30,0.00,,,0.00,WUHU216HW,2013-07-12 07:15:00,
2013-07-12 01:20:00,59.3,27.9,29.77,SSW,203,4.4,6.9,30,0.00,,,0.00,WUHU216HW,2013-07-12 07:20:00,
2013-07-12 01:25:00,59.3,27.9,29.77,SSW,203,3.1,5.8,30,0.00,,,0.00,WUHU216HW,2013-07-12 07:25:00,
2013-07-12 01:30:00,59.3,27.9,29.77,SSW,203,4.0,5.8,30,0.00,,,0.00,WUHU216HW,2013-07-12 07:30:00,
2013-07-12 01:35:00,59.1,27.8,29.77,SW,225,3.5,5.5,30,0.00,,,0.00,WUHU216HW,2013-07-12 07:35:00,
2013-07-12 01:40:00,58.8,27.5,29.77,SW,225,1.1,5.5,30,0.00,,,0.00,WUHU216HW,2013-07-12 07:40:00,
2013-07-12 01:45:00,58.8,28.2,29.77,SW,225,2.9,3.8,31,0.00,,,0.00,WUHU216HW,2013-07-12 07:45:00,
2013-07-12 01:50:00,58.8,28.2,29.77,SW,225,3.5,4.0,31,0.00,,,0.00,WUHU216HW,2013-07-12 07:50:00,
2013-07-12 01:55:00,58.8,28.2,29.78,SW,225,5.1,5.1,31,0.00,,,0.00,WUHU216HW,2013-07-12 07:55:00,
2013-07-12 02:00:00,58.4,27.8,29.77,SSW,203,2.4,5.1,31,0.00,,,0.00,WUHU216HW,2013-07-12 08:00:00,
2013-07-12 02:05:00,58.2,27.7,29.77,SW,225,2.6,5.5,31,0.00,,,0.00,WUHU216HW,2013-07-12 08:05:00,
2013-07-12 02:10:00,58.2,27.7,29.78,SW,225,0.0,5.5,31,0.00,,,0.00,WUHU216HW,2013-07-12 08:10:00,
2013-07-12 02:15:00,58.1,27.5,29.78,SW,225,0.0,4.9,31,0.00,,,0.00,WUHU216HW,2013-07-12 08:15:00,
2013-07-12 02:20:00,58.1,27.5,29.77,WSW,248,0.0,4.0,31,0.00,,,0.00,WUHU216HW,2013-07-12 08:20:00,
2013-07-12 02:25:00,57.9,27.4,29.78,WSW,248,0.0,0.0,31,0.00,,,0.00,WUHU216HW,2013-07-12 08:25:00,
2013-07-12 02:30:00,57.5,27.0,29.78,WSW,248,0.0,0.0,31,0.00,,,0.00,WUHU216HW,2013-07-12 08:30:00,
2013-07-12 02:35:00,57.0,27.3,29.78,WSW,248,0.0,0.0,32,0.00,,,0.00,WUHU216HW,2013-07-12 08:35:00,
2013-07-12 02:40:00,56.8,27.1,29.78,WSW,248,0.0,0.0,32,0.00,,,0.00,WUHU216HW,2013-07-12 08:40:00,
2013-07-12 02:45:00,56.3,26.6,29.78,WSW,248,0.0,0.0,32,0.00,,,0.00,WUHU216HW,2013-07-12 08:45:00,
2013-07-12 02:50:00,55.9,27.0,29.78,North,0,0.0,2.6,33,0.00,,,0.00,WUHU216HW,2013-07-12 08:50:00,
2013-07-12 02:55:00,55.5,26.7,29.78,North,0,0.0,2.6,33,0.00,,,0.00,WUHU216HW,2013-07-12 08:55:00,
2013-07-12 03:00:00,55.2,26.3,29.78,West,270,0.0,2.6,33,0.00,,,0.00,WUHU216HW,2013-07-12 09:00:00,
2013-07-12 03:05:00,55.0,26.2,29.78,SSW,203,0.0,2.6,33,0.00,,,0.00,WUHU216HW,2013-07-12 09:05:00,
2013-07-12 03:10:00,54.8,26.2,29.78,SSW,203,0.0,0.8,33,0.00,,,0.00,WUHU216HW,2013-07-12 09:10:00,
2013-07-12 03:15:00,55.0,26.2,29.78,SSW,203,0.0,0.0,33,0.00,,,0.00,WUHU216HW,2013-07-12 09:15:00,
2013-07-12 03:20:00,54.8,26.0,29.79,SSW,203,0.0,0.0,33,0.00,,,0.00,WUHU216HW,2013-07-12 09:20:00,
2013-07-12 03:25:00,54.6,25.9,29.78,WSW,248,0.0,0.0,33,0.00,,,0.00,WUHU216HW,2013-07-12 09:25:00,
2013-07-12 03:30:00,54.6,25.9,29.78,West,270,0.0,0.0,33,0.00,,,0.00,WUHU216HW,2013-07-12 09:30:00,
2013-07-12 03:35:00,54.5,25.7,29.78,West,270,0.0,0.0,33,0.00,,,0.00,WUHU216HW,2013-07-12 09:35:00,
2013-07-12 03:40:00,54.5,25.7,29.78,SW,225,0.8,0.8,33,0.00,,,0.00,WUHU216HW,2013-07-12 09:40:00,
2013-07-12 03:45:00,54.6,25.2,29.78,SSW,203,2.4,4.2,32,0.00,,,0.00,WUHU216HW,2013-07-12 09:45:00,
2013-07-12 03:50:00,55.0,25.5,29.79,SW,225,0.0,4.2,32,0.00,,,0.00,WUHU216HW,2013-07-12 09:50:00,
2013-07-12 03:55:00,55.2,24.9,29.79,WSW,248,0.0,2.6,31,0.00,,,0.00,WUHU216HW,2013-07-12 09:55:00,
2013-07-12 04:00:00,55.4,25.1,29.78,WSW,248,0.0,2.6,31,0.00,,,0.00,WUHU216HW,2013-07-12 10:00:00,
2013-07-12 04:05:00,55.5,25.3,29.78,SW,225,0.0,0.0,31,0.00,,,0.00,WUHU216HW,2013-07-12 10:05:00,
2013-07-12 04:10:00,55.7,25.4,29.78,SSW,203,5.1,5.1,31,0.00,,,0.00,WUHU216HW,2013-07-12 10:10:00,
2013-07-12 04:15:00,55.9,24.9,29.78,SSW,203,4.2,5.3,30,0.00,,,0.00,WUHU216HW,2013-07-12 10:15:00,
2013-07-12 04:20:00,56.3,25.2,29.79,SSW,203,2.9,5.5,30,0.00,,,0.00,WUHU216HW,2013-07-12 10:20:00,
2013-07-12 04:25:00,56.4,25.4,29.79,SW,225,0.0,5.5,30,0.00,,,0.00,WUHU216HW,2013-07-12 10:25:00,
2013-07-12 04:30:00,56.4,25.4,29.79,SW,225,0.0,4.2,30,0.00,,,0.00,WUHU216HW,2013-07-12 10:30:00,
2013-07-12 04:35:00,56.4,25.4,29.79,SSW,203,2.2,4.0,30,0.00,,,0.00,WUHU216HW,2013-07-12 10:35:00,
2013-07-12 04:40:00,56.4,25.4,29.79,SSW,203,0.0,4.0,30,0.00,,,0.00,WUHU216HW,2013-07-12 10:40:00,
2013-07-12 04:45:00,56.3,25.2,29.79,South,180,1.7,2.9,30,0.00,,,0.00,WUHU216HW,2013-07-12 10:45:00,
2013-07-12 04:50:00,56.3,25.2,29.79,South,180,0.0,2.9,30,0.00,,,0.00,WUHU216HW,2013-07-12 10:50:00,
2013-07-12 04:55:00,56.1,25.0,29.79,South,180,1.1,1.7,30,0.00,,,0.00,WUHU216HW,2013-07-12 10:55:00,
2013-07-12 05:00:00,56.1,25.0,29.79,South,180,0.0,1.7,30,0.00,,,0.00,WUHU216HW,2013-07-12 11:00:00,
2013-07-12 05:05:00,55.9,24.9,29.79,South,180,0.0,0.0,30,0.00,,,0.00,WUHU216HW,2013-07-12 11:05:00,
2013-07-12 05:10:00,55.7,24.7,29.79,South,180,0.0,0.6,30,0.00,,,0.00,WUHU216HW,2013-07-12 11:10:00,
2013-07-12 05:15:00,55.5,24.6,29.79,South,180,0.0,0.6,30,0.00,,,0.00,WUHU216HW,2013-07-12 11:15:00,
2013-07-12 05:20:00,55.4,25.1,29.79,South,180,0.0,0.0,31,0.00,,,0.00,WUHU216HW,2013-07-12 11:20:00,
2013-07-12 05:25:00,55.2,24.9,29.80,South,180,0.0,1.1,31,0.00,,,0.00,WUHU216HW,2013-07-12 11:25:00,
2013-07-12 05:30:00,55.0,24.8,29.80,South,180,1.3,1.3,31,0.00,,,0.00,WUHU216HW,2013-07-12 11:30:00,
2013-07-12 05:35:00,54.8,24.6,29.80,South,180,0.0,1.3,31,0.00,,,0.00,WUHU216HW,2013-07-12 11:35:00,
2013-07-12 05:40:00,54.5,24.5,29.80,South,180,0.0,2.4,31,0.00,,,0.00,WUHU216HW,2013-07-12 11:40:00,
2013-07-12 05:45:00,54.3,24.9,29.80,South,180,0.0,2.4,32,0.00,,,0.00,WUHU216HW,2013-07-12 11:45:00,
2013-07-12 05:50:00,54.1,24.8,29.79,South,180,0.0,0.0,32,0.00,,,0.00,WUHU216HW,2013-07-12 11:50:00,
2013-07-12 05:55:00,53.9,24.6,29.79,South,180,0.0,0.0,32,0.00,,,0.00,WUHU216HW,2013-07-12 11:55:00,
2013-07-12 06:00:00,53.7,24.5,29.80,South,180,0.0,0.0,32,0.00,,,0.00,WUHU216HW,2013-07-12 12:00:00,
2013-07-12 06:05:00,53.7,24.5,29.80,South,180,0.0,0.0,32,0.00,,,0.00,WUHU216HW,2013-07-12 12:05:00,
2013-07-12 06:10:00,53.6,25.0,29.80,South,180,0.0,0.0,33,0.00,,,0.00,WUHU216HW,2013-07-12 12:10:00,
2013-07-12 06:15:00,53.4,24.8,29.80,SSE,158,0.0,0.0,33,0.00,,,0.00,WUHU216HW,2013-07-12 12:15:00,
2013-07-12 06:20:00,53.2,24.7,29.80,SSE,158,0.0,0.0,33,0.00,,,0.00,WUHU216HW,2013-07-12 12:20:00,
2013-07-12 06:26:00,52.8,24.4,29.80,SSE,158,0.0,0.0,33,0.00,,,0.00,WUHU216HW,2013-07-12 12:26:00,
2013-07-12 06:31:00,52.8,25.0,29.80,SSE,158,0.0,0.0,34,0.00,,,0.00,WUHU216HW,2013-07-12 12:31:00,
2013-07-12 06:36:00,52.7,24.9,29.80,SSE,158,0.0,0.0,34,0.00,,,0.00,WUHU216HW,2013-07-12 12:36:00,
2013-07-12 06:41:00,52.5,25.4,29.80,SSE,158,0.0,0.0,35,0.00,,,0.00,WUHU216HW,2013-07-12 12:41:00,
2013-07-12 06:46:00,52.1,25.8,29.80,SSE,158,0.0,0.0,36,0.00,,,0.00,WUHU216HW,2013-07-12 12:46:00,
2013-07-12 06:51:00,51.6,25.3,29.80,SSE,158,0.0,0.0,36,0.00,,,0.00,WUHU216HW,2013-07-12 12:51:00,
2013-07-12 06:56:00,51.2,25.6,29.80,SSE,158,0.0,0.0,37,0.00,,,0.00,WUHU216HW,2013-07-12 12:56:00,
2013-07-12 07:01:00,50.7,25.1,29.80,SSE,158,0.0,0.0,37,0.00,,,0.00,WUHU216HW,2013-07-12 13:01:00,
2013-07-12 07:06:00,50.5,25.7,29.80,SSE,158,0.0,0.0,38,0.00,,,0.00,WUHU216HW,2013-07-12 13:06:00,
2013-07-12 07:11:00,50.3,25.5,29.80,SSE,158,0.0,0.0,38,0.00,,,0.00,WUHU216HW,2013-07-12 13:11:00,
2013-07-12 07:16:00,50.1,25.3,29.80,SSE,158,0.0,0.0,38,0.00,,,0.00,WUHU216HW,2013-07-12 13:16:00,
2013-07-12 07:21:00,50.0,25.9,29.80,SSE,158,0.0,0.0,38,0.00,,,0.00,WUHU216HW,2013-07-12 13:21:00,
2013-07-12 07:26:00,49.8,25.7,29.80,SSE,158,0.0,0.0,39,0.00,,,0.00,WUHU216HW,2013-07-12 13:26:00,
2013-07-12 07:31:00,49.8,25.7,29.80,SSE,158,0.0,0.0,39,0.00,,,0.00,WUHU216HW,2013-07-12 13:31:00,
2013-07-12 07:36:00,49.8,26.4,29.80,SSE,158,0.0,0.0,41,0.00,,,0.00,WUHU216HW,2013-07-12 13:36:00,
2013-07-12 07:41:00,49.8,27.5,29.80,SSE,158,0.0,0.0,42,0.00,,,0.00,WUHU216HW,2013-07-12 13:41:00,
2013-07-12 07:46:00,49.6,27.9,29.80,SSE,158,0.0,0.0,43,0.00,,,0.00,WUHU216HW,2013-07-12 13:46:00,
2013-07-12 07:51:00,49.6,28.4,29.80,SSE,158,0.0,0.0,44,0.00,,,0.00,WUHU216HW,2013-07-12 13:51:00,
2013-07-12 07:56:00,49.6,29.5,29.80,SSE,158,0.0,0.0,46,0.00,,,0.00,WUHU216HW,2013-07-12 13:56:00,
2013-07-12 08:01:00,49.8,30.3,29.80,SSE,158,0.0,0.0,47,0.00,,,0.00,WUHU216HW,2013-07-12 14:01:00,
2013-07-12 08:06:00,49.8,30.3,29.80,SSE,158,0.0,0.0,47,0.00,,,0.00,WUHU216HW,2013-07-12 14:06:00,
2013-07-12 08:11:00,50.0,31.6,29.80,SSE,158,0.0,0.0,49,0.00,,,0.00,WUHU216HW,2013-07-12 14:11:00,
2013-07-12 08:16:00,50.1,31.7,29.80,SSE,158,0.0,0.0,49,0.00,,,0.00,WUHU216HW,2013-07-12 14:16:00,
2013-07-12 08:21:00,50.5,32.6,29.80,SSE,158,0.0,0.0,50,0.00,,,0.00,WUHU216HW,2013-07-12 14:21:00,
2013-07-12 08:26:00,50.9,32.9,29.80,SSE,158,0.0,0.0,50,0.00,,,0.00,WUHU216HW,2013-07-12 14:26:00,
2013-07-12 08:31:00,51.6,33.0,29.80,SSE,158,0.0,0.0,49,0.00,,,0.00,WUHU216HW,2013-07-12 14:31:00,
2013-07-12 08:37:00,51.9,33.4,29.79,SSE,158,0.0,0.0,49,0.00,,,0.00,WUHU216HW,2013-07-12 14:37:00,
2013-07-12 08:42:00,52.5,33.3,29.80,SSE,158,0.0,0.0,48,0.00,,,0.00,WUHU216HW,2013-07-12 14:42:00,
2013-07-12 08:47:00,53.4,34.1,29.80,SSE,158,0.0,0.0,48,0.00,,,0.00,WUHU216HW,2013-07-12 14:47:00,
2013-07-12 08:52:00,54.5,34.3,29.80,SSE,158,0.0,0.0,47,0.00,,,0.00,WUHU216HW,2013-07-12 14:52:00,
2013-07-12 08:57:00,55.7,35.1,29.80,SSE,158,0.0,0.0,46,0.00,,,0.00,WUHU216HW,2013-07-12 14:57:00,
2013-07-12 09:02:00,57.0,35.7,29.79,SSE,158,0.0,0.0,45,0.00,,,0.00,WUHU216HW,2013-07-12 15:02:00,
2013-07-12 09:07:00,58.6,36.1,29.79,SSE,158,0.0,0.0,43,0.00,,,0.00,WUHU216HW,2013-07-12 15:07:00,
2013-07-12 09:12:00,60.0,36.8,29.79,SSE,158,0.0,0.0,42,0.00,,,0.00,WUHU216HW,2013-07-12 15:12:00,
2013-07-12 09:17:00,61.5,37.5,29.79,SSE,158,0.0,0.0,41,0.00,,,0.00,WUHU216HW,2013-07-12 15:17:00,
2013-07-12 09:22:00,62.6,37.9,29.79,SSE,158,0.0,0.0,40,0.00,,,0.00,WUHU216HW,2013-07-12 15:22:00,
2013-07-12 09:27:00,63.5,38.0,29.79,SSE,158,0.0,0.0,39,0.00,,,0.00,WUHU216HW,2013-07-12 15:27:00,
2013-07-12 09:32:00,64.5,39.0,29.79,South,180,0.0,0.0,39,0.00,,,0.00,WUHU216HW,2013-07-12 15:32:00,
2013-07-12 09:37:00,65.8,37.8,29.79,SW,225,2.6,4.4,36,0.00,,,0.00,WUHU216HW,2013-07-12 15:37:00,
2013-07-12 09:42:00,66.7,38.0,29.79,WSW,248,3.1,10.0,36,0.00,,,0.00,WUHU216HW,2013-07-12 15:42:00,
2013-07-12 09:47:00,67.8,38.2,29.79,SW,225,7.1,10.0,34,0.00,,,0.00,WUHU216HW,2013-07-12 15:47:00,
2013-07-12 09:52:00,68.7,37.5,29.80,SSW,203,5.1,7.1,32,0.00,,,0.00,WUHU216HW,2013-07-12 15:52:00,
2013-07-12 09:57:00,69.4,37.4,29.79,West,270,2.6,5.1,31,0.00,,,0.00,WUHU216HW,2013-07-12 15:57:00,
2013-07-12 10:02:00,69.9,37.7,29.79,West,270,2.9,4.4,31,0.00,,,0.00,WUHU216HW,2013-07-12 16:02:00,
2013-07-12 10:07:00,70.3,38.2,29.79,WSW,248,0.0,5.8,31,0.00,,,0.00,WUHU216HW,2013-07-12 16:07:00,
2013-07-12 10:12:00,70.8,38.0,29.79,West,270,0.0,5.8,30,0.00,,,0.00,WUHU216HW,2013-07-12 16:12:00,
2013-07-12 10:17:00,71.2,38.4,29.79,WSW,248,4.6,4.6,30,0.00,,,0.00,WUHU216HW,2013-07-12 16:17:00,
2013-07-12 10:22:00,71.7,38.8,29.79,WSW,248,1.3,5.5,30,0.00,,,0.00,WUHU216HW,2013-07-12 16:22:00,
2013-07-12 10:27:00,72.1,38.0,29.79,West,270,3.8,6.9,29,0.00,,,0.00,WUHU216HW,2013-07-12 16:27:00,
2013-07-12 10:32:00,72.3,38.2,29.79,SW,225,5.1,6.9,29,0.00,,,0.00,WUHU216HW,2013-07-12 16:32:00,
2013-07-12 10:37:00,72.6,38.6,29.79,West,270,2.2,5.1,29,0.00,,,0.00,WUHU216HW,2013-07-12 16:37:00,
2013-07-12 10:42:00,72.6,38.4,29.79,WNW,293,0.8,5.8,29,0.00,,,0.00,WUHU216HW,2013-07-12 16:42:00,
2013-07-12 10:47:00,72.3,38.2,29.79,NNW,338,2.4,6.0,29,0.00,,,0.00,WUHU216HW,2013-07-12 16:47:00,
2013-07-12 10:53:00,71.9,37.9,29.78,West,270,0.0,6.0,29,0.00,,,0.00,WUHU216HW,2013-07-12 16:53:00,
2013-07-12 10:58:00,71.6,38.6,29.78,SW,225,0.0,5.8,30,0.00,,,0.00,WUHU216HW,2013-07-12 16:58:00,
2013-07-12 11:03:00,71.7,38.8,29.78,SW,225,5.3,6.0,30,0.00,,,0.00,WUHU216HW,2013-07-12 17:03:00,
2013-07-12 11:08:00,71.7,37.9,29.78,SW,225,0.0,6.2,29,0.00,,,0.00,WUHU216HW,2013-07-12 17:08:00,
2013-07-12 11:13:00,72.1,38.0,29.78,SW,225,0.0,6.2,29,0.00,,,0.00,WUHU216HW,2013-07-12 17:13:00,
2013-07-12 11:18:00,72.5,38.3,29.78,SW,225,0.0,6.9,29,0.00,,,0.00,WUHU216HW,2013-07-12 17:18:00,
2013-07-12 11:24:00,72.6,38.4,29.78,West,270,0.0,6.9,29,0.00,,,0.00,WUHU216HW,2013-07-12 17:24:00,
2013-07-12 11:29:00,72.6,38.4,29.78,SSW,203,6.9,6.9,29,0.00,,,0.00,WUHU216HW,2013-07-12 17:29:00,
2013-07-12 11:34:00,72.3,38.2,29.78,SW,225,6.2,6.9,29,0.00,,,0.00,WUHU216HW,2013-07-12 17:34:00,
2013-07-12 11:39:00,72.3,38.2,29.78,SW,225,5.5,9.8,29,0.00,,,0.00,WUHU216HW,2013-07-12 17:39:00,
2013-07-12 11:44:00,72.1,38.0,29.78,SSW,203,5.1,9.8,29,0.00,,,0.00,WUHU216HW,2013-07-12 17:44:00,
2013-07-12 11:49:00,71.9,37.9,29.78,South,180,3.1,8.7,29,0.00,,,0.00,WUHU216HW,2013-07-12 17:49:00,
2013-07-12 11:55:00,72.1,38.0,29.78,SSW,203,0.2,8.7,29,0.00,,,0.00,WUHU216HW,2013-07-12 17:55:00,
2013-07-12 12:00:00,72.3,38.2,29.77,SW,225,0.0,5.5,29,0.00,,,0.00,WUHU216HW,2013-07-12 18:00:00,
2013-07-12 12:05:00,72.6,38.4,29.77,SW,225,3.3,4.2,29,0.00,,,0.00,WUHU216HW,2013-07-12 18:05:00,
2013-07-12 12:10:00,73.0,38.7,29.77,West,270,1.5,3.3,29,0.00,,,0.00,WUHU216HW,2013-07-12 18:10:00,
2013-07-12 12:15:00,73.2,37.9,29.77,NE,45,0.0,2.0,28,0.00,,,0.00,WUHU216HW,2013-07-12 18:15:00,
2013-07-12 12:21:00,73.2,37.9,29.78,WNW,293,0.0,4.6,28,0.00,,,0.00,WUHU216HW,2013-07-12 18:21:00,
2013-07-12 12:26:00,73.2,37.9,29.78,NNW,338,2.6,4.6,28,0.00,,,0.00,WUHU216HW,2013-07-12 18:26:00,
2013-07-12 12:31:00,73.0,37.7,29.77,NNW,338,0.0,2.6,28,0.00,,,0.00,WUHU216HW,2013-07-12 18:31:00,
2013-07-12 12:36:00,72.6,38.4,29.77,SSW,203,2.0,2.6,29,0.00,,,0.00,WUHU216HW,2013-07-12 18:36:00,
2013-07-12 12:42:00,72.3,38.2,29.78,WNW,293,4.4,5.1,29,0.00,,,0.00,WUHU216HW,2013-07-12 18:42:00,
2013-07-12 12:47:00,72.3,37.1,29.78,WSW,248,1.3,5.5,28,0.00,,,0.00,WUHU216HW,2013-07-12 18:47:00,
2013-07-12 12:52:00,71.7,36.7,29.78,WSW,248,0.8,7.6,28,0.00,,,0.00,WUHU216HW,2013-07-12 18:52:00,
2013-07-12 12:58:00,71.7,37.7,29.78,SW,225,4.0,7.6,29,0.00,,,0.00,WUHU216HW,2013-07-12 18:58:00,
2013-07-12 13:03:00,71.4,36.4,29.77,WSW,248,0.0,4.0,28,0.00,,,0.00,WUHU216HW,2013-07-12 19:03:00,
2013-07-12 13:08:00,71.7,37.7,29.77,North,0,8.7,8.7,29,0.00,,,0.00,WUHU216HW,2013-07-12 19:08:00,
2013-07-12 13:13:00,71.9,37.9,29.77,North,0,12.5,12.5,29,0.00,,,0.00,WUHU216HW,2013-07-12 19:13:00,
2013-07-12 13:18:00,72.3,37.1,29.77,West,270,8.2,18.7,28,0.00,,,0.00,WUHU216HW,2013-07-12 19:18:00,
2013-07-12 13:23:00,72.3,37.1,29.77,SW,225,0.0,18.7,28,0.00,,,0.00,WUHU216HW,2013-07-12 19:23:00,
2013-07-12 13:29:00,73.0,38.7,29.77,WSW,248,1.3,7.8,29,0.00,,,0.00,WUHU216HW,2013-07-12 19:29:00,
2013-07-12 13:34:00,73.5,38.2,29.77,WSW,248,2.4,6.9,28,0.00,,,0.00,WUHU216HW,2013-07-12 19:34:00,
2013-07-12 13:39:00,74.1,38.7,29.77,West,270,4.4,5.8,28,0.00,,,0.00,WUHU216HW,2013-07-12 19:39:00,
2013-07-12 13:44:00,74.4,38.0,29.77,NW,315,6.9,12.3,27,0.00,,,0.00,WUHU216HW,2013-07-12 19:44:00,
2013-07-12 13:49:00,74.3,36.8,29.77,WNW,293,0.0,12.3,26,0.00,,,0.00,WUHU216HW,2013-07-12 19:49:00,
2013-07-12 13:54:00,74.3,36.8,29.77,NNW,338,2.6,6.2,26,0.00,,,0.00,WUHU216HW,2013-07-12 19:54:00,
2013-07-12 13:59:00,74.3,36.8,29.77,West,270,2.6,6.9,26,0.00,,,0.00,WUHU216HW,2013-07-12 19:59:00,
2013-07-12 14:04:00,74.3,36.8,29.77,NW,315,0.0,7.1,26,0.00,,,0.00,WUHU216HW,2013-07-12 20:04:00,
2013-07-12 14:10:00,73.9,36.5,29.77,NNW,338,6.2,7.8,26,0.00,,,0.00,WUHU216HW,2013-07-12 20:10:00,
2013-07-12 14:15:00,73.7,36.5,29.77,WNW,293,2.6,7.8,26,0.00,,,0.00,WUHU216HW,2013-07-12 20:15:00,
2013-07-12 14:20:00,73.5,36.2,29.77,SW,225,0.0,7.3,26,0.00,,,0.00,WUHU216HW,2013-07-12 20:20:00,
2013-07-12 14:25:00,73.2,35.9,29.77,NW,315,1.1,5.8,26,0.00,,,0.00,WUHU216HW,2013-07-12 20:25:00,
2013-07-12 14:30:00,73.2,35.9,29.77,West,270,0.0,2.0,26,0.00,,,0.00,WUHU216HW,2013-07-12 20:30:00,
2013-07-12 14:35:00,73.4,36.0,29.77,NW,315,0.0,4.6,26,0.00,,,0.00,WUHU216HW,2013-07-12 20:35:00,
2013-07-12 14:40:00,73.2,35.9,29.77,NW,315,7.3,7.3,26,0.00,,,0.00,WUHU216HW,2013-07-12 20:40:00,
2013-07-12 14:45:00,73.2,35.9,29.77,North,0,7.6,9.1,26,0.00,,,0.00,WUHU216HW,2013-07-12 20:45:00,
2013-07-12 14:51:00,73.0,36.7,29.77,WNW,293,1.1,9.1,27,0.00,,,0.00,WUHU216HW,2013-07-12 20:51:00,
2013-07-12 14:56:00,72.8,37.6,29.77,West,270,0.0,4.6,28,0.00,,,0.00,WUHU216HW,2013-07-12 20:56:00,
2013-07-12 15:01:00,73.0,37.7,29.77,WNW,293,3.3,3.3,28,0.00,,,0.00,WUHU216HW,2013-07-12 21:01:00,
2013-07-12 15:06:00,73.5,38.2,29.77,NNW,338,9.3,9.3,28,0.00,,,0.00,WUHU216HW,2013-07-12 21:06:00,
2013-07-12 15:12:00,73.9,36.5,29.77,NNW,338,0.0,9.6,26,0.00,,,0.00,WUHU216HW,2013-07-12 21:12:00,
2013-07-12 15:17:00,73.9,38.5,29.77,NNW,338,5.8,9.6,28,0.00,,,0.00,WUHU216HW,2013-07-12 21:17:00,
2013-07-12 15:23:00,73.9,38.5,29.77,WNW,293,5.1,9.6,28,0.00,,,0.00,WUHU216HW,2013-07-12 21:23:00,
2013-07-12 15:28:00,74.3,36.8,29.77,NW,315,10.5,10.7,27,0.00,,,0.00,WUHU216HW,2013-07-12 21:28:00,
2013-07-12 15:33:00,74.1,37.6,29.77,NNW,338,2.6,14.3,27,0.00,,,0.00,WUHU216HW,2013-07-12 21:33:00,
2013-07-12 15:38:00,74.1,38.7,29.77,NNE,23,5.8,14.3,28,0.00,,,0.00,WUHU216HW,2013-07-12 21:38:00,
2013-07-12 15:43:00,73.9,37.5,29.77,NNW,338,2.2,8.5,27,0.00,,,0.00,WUHU216HW,2013-07-12 21:43:00,
2013-07-12 15:48:00,73.5,37.2,29.77,NW,315,5.1,8.5,27,0.00,,,0.00,WUHU216HW,2013-07-12 21:48:00,
2013-07-12 15:54:00,73.5,39.2,29.77,North,0,2.0,8.2,28,0.00,,,0.00,WUHU216HW,2013-07-12 21:54:00,
2013-07-12 15:59:00,73.7,38.3,29.77,NW,315,4.0,8.9,28,0.00,,,0.00,WUHU216HW,2013-07-12 21:59:00,
2013-07-12 16:04:00,73.7,38.3,29.77,WNW,293,2.2,8.9,28,0.00,,,0.00,WUHU216HW,2013-07-12 22:04:00,
2013-07-12 16:10:00,73.9,38.5,29.77,NW,315,3.8,5.8,28,0.00,,,0.00,WUHU216HW,2013-07-12 22:10:00,
2013-07-12 16:15:00,74.1,39.7,29.77,North,0,5.5,7.3,29,0.00,,,0.00,WUHU216HW,2013-07-12 22:15:00,
2013-07-12 16:20:00,74.4,39.0,29.77,NW,315,8.2,10.0,28,0.00,,,0.00,WUHU216HW,2013-07-12 22:20:00,
2013-07-12 16:25:00,74.8,38.3,29.77,NW,315,4.4,10.2,27,0.00,,,0.00,WUHU216HW,2013-07-12 22:25:00,
2013-07-12 16:30:00,74.8,38.0,29.77,NNW,338,4.9,11.8,27,0.00,,,0.00,WUHU216HW,2013-07-12 22:30:00,
2013-07-12 16:35:00,74.4,36.9,29.77,WNW,293,2.0,11.8,26,0.00,,,0.00,WUHU216HW,2013-07-12 22:35:00,
2013-07-12 16:41:00,73.9,38.5,29.77,WNW,293,6.0,11.8,28,0.00,,,0.00,WUHU216HW,2013-07-12 22:41:00,
2013-07-12 16:46:00,73.5,38.2,29.77,NW,315,0.0,6.0,28,0.00,,,0.00,WUHU216HW,2013-07-12 22:46:00,
2013-07-12 16:51:00,73.2,37.9,29.77,NW,315,3.3,5.3,28,0.00,,,0.00,WUHU216HW,2013-07-12 22:51:00,
2013-07-12 16:56:00,73.0,37.7,29.77,NNW,338,4.4,7.8,28,0.00,,,0.00,WUHU216HW,2013-07-12 22:56:00,
2013-07-12 17:01:00,72.8,37.6,29.77,NW,315,7.1,10.0,28,0.00,,,0.00,WUHU216HW,2013-07-12 23:01:00,
2013-07-12 17:06:00,72.5,37.3,29.77,West,270,2.2,10.0,28,0.00,,,0.00,WUHU216HW,2013-07-12 23:06:00,
2013-07-12 17:11:00,72.3,38.2,29.77,NW,315,4.2,5.3,29,0.00,,,0.00,WUHU216HW,2013-07-12 23:11:00,
2013-07-12 17:16:00,72.3,37.1,29.77,North,0,3.8,7.6,28,0.00,,,0.00,WUHU216HW,2013-07-12 23:16:00,
2013-07-12 17:22:00,72.1,37.0,29.76,NNE,23,0.0,7.6,28,0.00,,,0.00,WUHU216HW,2013-07-12 23:22:00,
2013-07-12 17:27:00,72.3,37.1,29.77,NW,315,2.0,8.9,28,0.00,,,0.00,WUHU216HW,2013-07-12 23:27:00,
2013-07-12 17:32:00,72.5,37.3,29.77,North,0,12.5,12.5,28,0.00,,,0.00,WUHU216HW,2013-07-12 23:32:00,
2013-07-12 17:37:00,73.0,37.7,29.77,NW,315,4.9,12.5,28,0.00,,,0.00,WUHU216HW,2013-07-12 23:37:00,
2013-07-12 17:42:00,73.2,37.9,29.77,NNW,338,10.2,10.2,28,0.00,,,0.00,WUHU216HW,2013-07-12 23:42:00,
2013-07-12 17:48:00,73.7,38.2,29.76,WNW,293,6.0,11.6,28,0.00,,,0.00,WUHU216HW,2013-07-12 23:48:00,
2013-07-12 17:53:00,74.4,36.9,29.76,NNW,338,5.1,11.6,26,0.00,,,0.00,WUHU216HW,2013-07-12 23:53:00,
2013-07-12 17:58:00,75.0,38.4,29.76,NNW,338,8.5,10.2,27,0.00,,,0.00,WUHU216HW,2013-07-12 23:58:00,
2013-07-12 18:03:00,75.7,37.0,29.76,NNW,338,2.4,12.9,25,0.00,,,0.00,WUHU216HW,2013-07-13 00:03:00,
2013-07-12 18:08:00,75.9,37.2,29.76,NNW,338,6.2,12.9,25,0.00,,,0.00,WUHU216HW,2013-07-13 00:08:00,
2013-07-12 18:13:00,75.7,37.0,29.76,NW,315,2.6,9.1,25,0.00,,,0.00,WUHU216HW,2013-07-13 00:13:00,
2013-07-12 18:18:00,75.3,36.7,29.77,NNW,338,8.9,8.9,25,0.00,,,0.00,WUHU216HW,2013-07-13 00:18:00,
2013-07-12 18:23:00,74.8,37.2,29.77,NNE,23,3.3,8.9,26,0.00,,,0.00,WUHU216HW,2013-07-13 00:23:00,
2013-07-12 18:28:00,74.1,36.6,29.77,NNE,23,7.8,7.8,26,0.00,,,0.00,WUHU216HW,2013-07-13 00:28:00,
2013-07-12 18:33:00,73.2,35.9,29.77,North,0,0.0,8.0,26,0.00,,,0.00,WUHU216HW,2013-07-13 00:33:00,
2013-07-12 18:38:00,72.8,37.6,29.77,North,0,9.1,9.1,28,0.00,,,0.00,WUHU216HW,2013-07-13 00:38:00,
2013-07-12 18:43:00,73.2,36.9,29.77,North,0,2.0,9.8,27,0.00,,,0.00,WUHU216HW,2013-07-13 00:43:00,
2013-07-12 18:48:00,73.9,37.6,29.76,NW,315,10.2,10.2,27,0.00,,,0.00,WUHU216HW,2013-07-13 00:48:00,
2013-07-12 18:53:00,75.3,38.7,29.76,WSW,248,4.0,10.2,27,0.00,,,0.00,WUHU216HW,2013-07-13 00:53:00,
2013-07-12 18:58:00,77.1,38.2,29.77,NNW,338,3.8,9.6,25,0.00,,,0.00,WUHU216HW,2013-07-13 00:58:00,
2013-07-12 19:03:00,77.5,38.5,29.76,West,270,5.8,10.7,25,0.00,,,0.00,WUHU216HW,2013-07-13 01:03:00,
2013-07-12 19:08:00,77.9,38.8,29.76,WNW,293,4.4,10.7,25,0.00,,,0.00,WUHU216HW,2013-07-13 01:08:00,
2013-07-12 19:13:00,77.7,38.6,29.76,North,0,2.9,14.5,25,0.00,,,0.00,WUHU216HW,2013-07-13 01:13:00,
2013-07-12 19:18:00,77.0,38.2,29.77,North,0,10.0,14.5,25,0.00,,,0.00,WUHU216HW,2013-07-13 01:18:00,
2013-07-12 19:23:00,76.4,38.6,29.76,NW,315,2.2,10.5,26,0.00,,,0.00,WUHU216HW,2013-07-13 01:23:00,
2013-07-12 19:28:00,76.8,37.9,29.77,WNW,293,5.1,10.7,25,0.00,,,0.00,WUHU216HW,2013-07-13 01:28:00,
2013-07-12 19:33:00,76.6,37.8,29.77,NNW,338,8.0,10.7,25,0.00,,,0.00,WUHU216HW,2013-07-13 01:33:00,
2013-07-12 19:38:00,75.7,37.0,29.77,WNW,293,1.3,8.0,25,0.00,,,0.00,WUHU216HW,2013-07-13 01:38:00,
2013-07-12 19:44:00,74.8,38.3,29.77,WNW,293,0.0,7.1,27,0.00,,,0.00,WUHU216HW,2013-07-13 01:44:00,
2013-07-12 19:49:00,73.9,37.5,29.77,NW,315,0.0,5.5,27,0.00,,,0.00,WUHU216HW,2013-07-13 01:49:00,
2013-07-12 19:55:00,73.2,37.9,29.77,NW,315,0.0,4.9,28,0.00,,,0.00,WUHU216HW,2013-07-13 01:55:00,
2013-07-12 20:00:00,73.0,37.7,29.77,NNW,338,0.0,4.9,28,0.00,,,0.00,WUHU216HW,2013-07-13 02:00:00,
2013-07-12 20:05:00,72.6,37.4,29.78,NNW,338,0.0,3.5,28,0.00,,,0.00,WUHU216HW,2013-07-13 02:05:00,
2013-07-12 20:10:00,72.3,38.2,29.78,NNW,338,7.1,7.1,29,0.00,,,0.00,WUHU216HW,2013-07-13 02:10:00,
2013-07-12 20:15:00,71.9,36.8,29.77,NNW,338,5.5,9.3,28,0.00,,,0.00,WUHU216HW,2013-07-13 02:15:00,
2013-07-12 20:20:00,71.4,37.4,29.78,NNW,338,0.0,9.3,29,0.00,,,0.00,WUHU216HW,2013-07-13 02:20:00,
2013-07-12 20:26:00,71.2,37.3,29.78,NW,315,0.0,4.2,29,0.00,,,0.00,WUHU216HW,2013-07-13 02:26:00,
2013-07-12 20:31:00,70.8,36.9,29.78,WNW,293,0.0,4.2,29,0.00,,,0.00,WUHU216HW,2013-07-13 02:31:00,
2013-07-12 20:36:00,70.5,36.6,29.79,NNW,338,0.0,3.8,29,0.00,,,0.00,WUHU216HW,2013-07-13 02:36:00,
2013-07-12 20:41:00,70.1,36.3,29.79,NW,315,0.0,0.0,29,0.00,,,0.00,WUHU216HW,2013-07-13 02:41:00,
2013-07-12 20:46:00,69.9,36.1,29.80,NNW,338,3.1,3.8,29,0.00,,,0.00,WUHU216HW,2013-07-13 02:46:00,
2013-07-12 20:51:00,69.6,35.8,29.80,WNW,293,0.0,4.0,30,0.00,,,0.00,WUHU216HW,2013-07-13 02:51:00,
2013-07-12 20:56:00,69.0,36.5,29.80,WNW,293,0.0,4.0,30,0.00,,,0.00,WUHU216HW,2013-07-13 02:56:00,
2013-07-12 21:01:00,68.7,36.0,29.80,WNW,293,0.0,0.8,30,0.00,,,0.00,WUHU216HW,2013-07-13 03:01:00,
2013-07-12 21:06:00,68.3,35.7,29.80,WNW,293,0.0,0.8,30,0.00,,,0.00,WUHU216HW,2013-07-13 03:06:00,
2013-07-12 21:11:00,68.1,36.3,29.80,WNW,293,0.0,0.0,31,0.00,,,0.00,WUHU216HW,2013-07-13 03:11:00,
2013-07-12 21:16:00,67.8,35.9,29.80,WNW,293,0.0,0.0,31,0.00,,,0.00,WUHU216HW,2013-07-13 03:16:00,
2013-07-12 21:22:00,67.6,35.7,29.80,West,270,1.1,2.2,31,0.00,,,0.00,WUHU216HW,2013-07-13 03:22:00,
2013-07-12 21:27:00,67.1,35.4,29.81,West,270,0.0,2.2,31,0.00,,,0.00,WUHU216HW,2013-07-13 03:27:00,
2013-07-12 21:32:00,66.7,35.1,29.80,North,0,0.0,0.0,31,0.00,,,0.00,WUHU216HW,2013-07-13 03:32:00,
2013-07-12 21:37:00,66.3,34.8,29.80,NNW,338,0.0,2.0,31,0.00,,,0.00,WUHU216HW,2013-07-13 03:37:00,
2013-07-12 21:42:00,66.0,34.5,29.81,NNW,338,0.0,2.0,31,0.00,,,0.00,WUHU216HW,2013-07-13 03:42:00,
2013-07-12 21:47:00,65.8,35.0,29.81,West,270,0.0,0.0,32,0.00,,,0.00,WUHU216HW,2013-07-13 03:47:00,
2013-07-12 21:52:00,65.4,34.7,29.81,West,270,0.0,0.0,32,0.00,,,0.00,WUHU216HW,2013-07-13 03:52:00,
2013-07-12 21:58:00,65.1,34.4,29.82,West,270,0.0,1.3,32,0.00,,,0.00,WUHU216HW,2013-07-13 03:58:00,
2013-07-12 22:01:00,64.9,34.2,29.82,WSW,248,0.0,1.3,32,0.00,,,0.00,WUHU216HW,2013-07-13 04:01:00,
2013-07-12 22:02:00,64.7,34.2,29.82,WSW,248,0.0,1.3,32,0.00,,,0.00,WUHU216HW,2013-07-13 04:02:00,
2013-07-12 22:04:00,64.7,34.1,29.81,WSW,248,0.0,1.3,32,0.00,,,0.00,WUHU216HW,2013-07-13 04:04:00,
2013-07-12 22:09:00,64.5,33.2,29.82,SW,225,0.0,1.7,31,0.00,,,0.00,WUHU216HW,2013-07-13 04:09:00,
2013-07-12 22:14:00,64.2,32.9,29.82,SW,225,2.6,2.6,31,0.00,,,0.00,WUHU216HW,2013-07-13 04:14:00,
2013-07-12 22:19:00,64.0,32.7,29.82,SW,225,2.6,3.3,31,0.00,,,0.00,WUHU216HW,2013-07-13 04:19:00,
2013-07-12 22:24:00,64.0,33.4,29.82,SSW,203,3.3,3.3,32,0.00,,,0.00,WUHU216HW,2013-07-13 04:24:00,
2013-07-12 22:29:00,63.6,33.1,29.83,SW,225,3.1,6.0,32,0.00,,,0.00,WUHU216HW,2013-07-13 04:29:00,
2013-07-12 22:34:00,63.6,33.8,29.81,South,180,1.7,6.0,33,0.00,,,0.00,WUHU216HW,2013-07-13 04:34:00,
2013-07-12 22:39:00,63.6,33.8,29.81,South,180,0.0,1.7,33,0.00,,,0.00,WUHU216HW,2013-07-13 04:39:00,
2013-07-12 22:44:00,63.5,33.7,29.81,South,180,0.0,0.0,33,0.00,,,0.00,WUHU216HW,2013-07-13 04:44:00,
2013-07-12 22:49:00,63.3,33.5,29.81,South,180,2.2,2.2,33,0.00,,,0.00,WUHU216HW,2013-07-13 04:49:00,
2013-07-12 22:54:00,63.1,33.3,29.81,South,180,0.0,2.6,33,0.00,,,0.00,WUHU216HW,2013-07-13 04:54:00,
2013-07-12 22:59:00,62.7,33.7,29.81,South,180,0.0,2.6,34,0.00,,,0.00,WUHU216HW,2013-07-13 04:59:00,
2013-07-12 23:04:00,62.6,33.6,29.81,South,180,0.0,1.5,34,0.00,,,0.00,WUHU216HW,2013-07-13 05:04:00,
2013-07-12 23:09:00,62.4,34.1,29.81,SSW,203,1.7,2.4,35,0.00,,,0.00,WUHU216HW,2013-07-13 05:09:00,
2013-07-12 23:14:00,62.2,34.0,29.82,SSW,203,1.1,3.3,35,0.00,,,0.00,WUHU216HW,2013-07-13 05:14:00,
2013-07-12 23:19:00,62.2,34.0,29.82,SSW,203,0.0,3.3,35,0.00,,,0.00,WUHU216HW,2013-07-13 05:19:00,
2013-07-12 23:24:00,62.0,34.5,29.83,WSW,248,0.0,1.7,36,0.00,,,0.00,WUHU216HW,2013-07-13 05:24:00,
2013-07-12 23:29:00,61.8,34.4,29.83,WSW,248,0.0,1.3,36,0.00,,,0.00,WUHU216HW,2013-07-13 05:29:00,
2013-07-12 23:34:00,61.7,34.2,29.83,WSW,248,0.0,1.3,36,0.00,,,0.00,WUHU216HW,2013-07-13 05:34:00,
2013-07-12 23:39:00,61.7,34.2,29.83,SSW,203,1.7,2.4,36,0.00,,,0.00,WUHU216HW,2013-07-13 05:39:00,
2013-07-12 23:44:00,61.5,34.0,29.83,SSW,203,2.2,2.4,36,0.00,,,0.00,WUHU216HW,2013-07-13 05:44:00,
2013-07-12 23:49:00,61.5,34.8,29.82,South,180,2.9,2.9,37,0.00,,,0.00,WUHU216HW,2013-07-13 05:49:00,
2013-07-12 23:54:00,61.3,33.9,29.83,SSE,158,0.2,3.5,36,0.00,,,0.00,WUHU216HW,2013-07-13 05:54:00,
2013-07-12 23:59:00,61.3,33.9,29.83,SSE,158,1.5,3.5,36,0.00,,,0.00,WUHU216HW,2013-07-13 05:59:00,